Location: Maccacari
(45.1333°N, 11.1333°E)
Time: 06:43:49
(UTC+00:00)

Cosmos 2082 Rocket - Pass Details

Date: 18 September 2020
Orbit: 834 x 853 km, 71.0° (Epoch: 29 October)

Event Time Altitude Azimuth Distance (km) Brightness Sun altitude
Rises 18:56:52 0° 344° (NNW) 3,392 5.9 -17.5°
Reaches altitude 10° 19:02:11 10° 26° (NNE) 2,454 4.6 -18.4°
Maximum altitude 19:02:58 10° 34° (NE) 2,435 4.5 -18.5°
Drops below altitude 10° 19:03:45 10° 43° (NE) 2,453 4.4 -18.6°
Enters shadow 19:04:42 - 52° (NE) 2,525 4.4 -18.8°
